This demonstration page uses our WeatherBlox Daily Observations layout. Learn more.

Left ArrowRight Arrow

Hourly Observations for March 18, 2022

Temp ( °F °C ) Dew Point ( °F °C ) Humidity (%) Winds ( mph kmh ) Pressure ( in mb ) Visibility ( mi km ) Precip ( " mm )
12:56 am 00:56 Cloudy 36 2.2 34 1.1 93 93 WNW 8 13 30.11 1020 10 16 0.00 0.00
1:56 am 01:56 Mostly Cloudy 35 1.7 34 1.1 96 96 WNW 9 15 30.08 1019 10 16 0.00 0.00
2:56 am 02:56 Cloudy 36 2.2 32 0 86 86 NW 10 17 30.06 1018 10 16 0.00 0.00
3:56 am 03:56 Cloudy 36 2.2 30 -1.1 79 79 NNW 12 19 30.04 1017 10 16 0.00 0.00
4:56 am 04:56 Clear 36 2.2 29 -1.7 76 76 NNW 14 22 30.04 1017 10 16 0.00 0.00
5:56 am 05:56 Clear 35 1.7 29 -1.7 78 78 NNW 12 19 30.05 1018 10 16 0.00 0.00
6:56 am 06:56 Clear 35 1.7 28 -2.2 76 76 NNW 9 15 30.07 1018 10 16 0.00 0.00
7:56 am 07:56 Sunny 34 1.1 28 -2.2 79 79 N 13 20 30.08 1019 10 16 0.00 0.00
8:56 am 08:56 Sunny 35 1.7 28 -2.2 76 76 NNW 12 19 30.09 1019 10 16 0.00 0.00
9:56 am 09:56 Sunny 37 2.8 28 -2.2 70 70 NNW 13 20 30.09 1019 10 16 0.00 0.00
10:56 am 10:56 Sunny 42 5.6 31 -0.6 65 65 N 13 20 30.09 1019 10 16 0.00 0.00
11:56 am 11:56 Sunny 45 7.2 31 -0.6 58 58 N 12 19 30.07 1018 10 16 0.00 0.00
12:56 pm 12:56 Sunny 49 9.4 28 -2.2 44 44 N 13 20 30.05 1018 10 16 0.00 0.00
1:56 pm 13:56 Sunny 52 11.1 27 -2.8 38 38 NNW 12 19 30.02 1017 10 16 0.00 0.00
2:56 pm 14:56 Sunny 55 12.8 22 -5.6 28 28 N 14 22 29.99 1016 10 16 0.00 0.00
3:56 pm 15:56 Sunny 56 13.3 20 -6.7 24 24 N 16 26 29.97 1015 10 16 0.00 0.00
4:56 pm 16:56 Partly Cloudy 56 13.3 21 -6.1 26 26 N 15 24 29.96 1015 10 16 0.00 0.00
5:56 pm 17:56 Sunny 56 13.3 21 -6.1 26 26 N 14 22 29.96 1015 10 16 0.00 0.00
6:56 pm 18:56 Sunny 54 12.2 22 -5.6 29 29 NNE 10 17 29.97 1015 10 16 0.00 0.00
7:56 pm 19:56 Clear 45 7.2 23 -5 42 42 NE 6 9 29.99 1016 10 16 0.00 0.00
8:56 pm 20:56 Clear 40 4.4 22 -5.6 49 49 ENE 6 9 30.01 1016 10 16 0.00 0.00
9:56 pm 21:56 Clear 37 2.8 21 -6.1 52 52 E 3 6 30.03 1017 10 16 0.00 0.00
10:56 pm 22:56 Clear 38 3.3 22 -5.6 52 52 Calm 30.04 1017 10 16 0.00 0.00
11:56 pm 23:56 Clear 36 2.2 23 -5 59 59 Calm 30.04 1017 10 16 0.00 0.00

Powered by AerisWeather